Location: Unspecified
(0.0000°N, 0.0000°E)
Time: 03:08:37
(UTC+00:00)

N. Korean satellite - Pass Details

Date: 28 May 2017
Orbit: 461 x 513 km, 97.2° (Epoch: 17 December)

Event Time Altitude Azimuth Distance (km) Brightness Sun altitude
Rises 17:34:16 0° 122° (ESE) 2,576 9.6 5.4°
Enters shadow 18:41:59 -56° 173° (S) 11,084 13.3 -10.4°
Maximum altitude 19:11:26 29° 259° (W) 943 8.6 -17.2°
